Fort Bragg, NC

2:34 PM EDT on October 22, 2017 (GMT -0400)
Simmons Army Air Field

Weather History for KFBG - July, 2013

Change the Weather History Date:

Monday, July 15, 2013

  Actual Average Record
Temperature  
Mean Temperature 80 °F -  
Max Temperature 89 °F 87 °F 97 °F (2017)
Min Temperature 71 °F 70 °F 65 °F (2011)
Cooling Degree Days 15    
Growing Degree Days 30 (Base 50)    
Moisture  
Dew Point 73 °F    
Average Humidity 87    
Maximum Humidity 100    
Minimum Humidity 55    
Precipitation  
Precipitation 0.00 in - - ()
Sea Level Pressure  
Sea Level Pressure 30.29 in    
Wind  
Wind Speed 3 mph (NE)    
Max Wind Speed 9 mph    
Max Gust Speed -    
Visibility 9 miles    
Events      
Averages and records for this station are not official NWS values.
T = Trace of Precipitation, MM = Missing Value Source: NWS Daily Summary

Daily Weather History Graph

Daily Weather History Graph

Search for Another Location

Airport or City:

Trip Planner

Search our weather history database for the weather conditions in past years. The results will help you decide how hot, cold, wet, or windy it might be!

Date:

Astronomy

Jul. 15, 2013 Rise Set
Actual Time 6:12 AM EDT 8:30 PM EDT
Civil Twilight 5:43 AM EDT 8:59 PM EDT
Nautical Twilight 5:08 AM EDT 9:34 PM EDT
Astronomical Twilight 4:29 AM EDT 10:13 PM EDT
Moon 1:11 PM EDT (7/15) No Moon Set
Length of Visible Light 15h 15m
Length of Day
14h 17m
Waxing Crescent, 45% of the Moon is Illuminated
Jul 15
Waxing Crescent
Jul 15
First Quarter
Jul 22
Full
Jul 29
Last Quarter
Aug 6
New

Hourly Weather History & Observations

Time (EDT) Temp. Heat Index Dew Point Humidity Pressure Visibility Wind Dir Wind Speed Gust Speed Precip Events Conditions
12:55 AM 74.7 °F - 73.4 °F 96% 30.28 in 10.0 mi ENE 3.5 mph - N/A   Clear
1:55 AM 73.0 °F - 72.7 °F 99% 30.29 in 10.0 mi Calm Calm - N/A   Clear
2:57 AM 72.3 °F - 72.0 °F 99% 30.28 in 10.0 mi Calm Calm - N/A   Clear
3:56 AM 71.6 °F - 71.6 °F 100% 30.28 in 10.0 mi North 3.5 mph - N/A   Clear
4:37 AM 71.6 °F - 71.6 °F 100% 30.28 in 5.0 mi North 2.3 mph - N/A   Clear
4:56 AM 71.6 °F - 71.6 °F 100% 30.28 in 7.0 mi North 1.2 mph - N/A   Clear
5:29 AM 71.6 °F - 71.6 °F 100% 30.28 in 10.0 mi North 3.5 mph - N/A   Clear
5:56 AM 71.6 °F - 71.6 °F 100% 30.29 in 10.0 mi North 2.3 mph - N/A   Partly Cloudy
5:58 AM 71.6 °F - 71.2 °F 99% 30.30 in 10.0 mi North 3.5 mph - N/A   Partly Cloudy
6:12 AM 71.6 °F - 71.6 °F 100% 30.29 in 9.0 mi North 3.5 mph - N/A   Mostly Cloudy
6:14 AM 71.6 °F - 71.6 °F 100% 30.29 in 9.0 mi NNE 3.5 mph - N/A   Mostly Cloudy
6:22 AM 71.6 °F - 71.6 °F 100% 30.29 in 7.0 mi North 3.5 mph - N/A   Mostly Cloudy
6:48 AM 71.6 °F - 71.6 °F 100% 30.30 in 8.0 mi North 2.3 mph - N/A   Overcast
6:58 AM 72.3 °F - 72.3 °F 100% 30.30 in 9.0 mi Calm Calm - N/A   Overcast
7:10 AM 73.4 °F - 73.4 °F 100% 30.30 in 10.0 mi North 2.3 mph - N/A   Overcast
7:52 AM 75.2 °F - 75.2 °F 100% 30.31 in 10.0 mi NNE 2.3 mph - N/A   Overcast
7:58 AM 74.7 °F - 74.7 °F 100% 30.32 in 10.0 mi NNE 3.5 mph - N/A   Overcast
8:02 AM 75.2 °F - 75.2 °F 100% 30.31 in 10.0 mi Variable 2.3 mph - N/A   Overcast
8:16 AM 75.2 °F - 75.2 °F 100% 30.31 in 10.0 mi NE 3.5 mph - N/A   Overcast
8:32 AM 77.0 °F - 77.0 °F 100% 30.31 in 10.0 mi ENE 5.8 mph - N/A   Overcast
8:58 AM 77.4 °F - 77.2 °F 99% 30.32 in 10.0 mi East 5.8 mph - N/A   Overcast
9:44 AM 78.8 °F - 77.0 °F 94% 30.31 in 10.0 mi Variable 1.2 mph - N/A   Mostly Cloudy
9:54 AM 80.6 °F 87.1 °F 77.0 °F 89% 30.31 in 10.0 mi Variable 2.3 mph - N/A   Scattered Clouds
9:58 AM 80.1 °F 85.7 °F 76.6 °F 89% 30.32 in 10.0 mi Variable 3.5 mph - N/A   Scattered Clouds
10:58 AM 84.0 °F 91.9 °F 74.8 °F 74% 30.32 in 10.0 mi Variable 2.3 mph - N/A   Partly Cloudy
11:58 AM 85.1 °F 92.9 °F 74.5 °F 70% 30.32 in 10.0 mi Variable 6.9 mph - N/A   Clear
12:58 PM 86.7 °F 92.9 °F 72.0 °F 61% 30.32 in 5.0 mi ENE 5.8 mph - N/A   Haze
1:58 PM 87.1 °F 93.2 °F 71.6 °F 60% 30.30 in 10.0 mi ENE 5.8 mph - N/A   Partly Cloudy
2:55 PM 87.1 °F 92.8 °F 71.4 °F 59% 30.27 in 10.0 mi East 9.2 mph - N/A   Clear
3:56 PM 89.6 °F 96.2 °F 71.6 °F 55% 30.26 in 10.0 mi ENE 9.2 mph - N/A   Clear
4:58 PM 89.1 °F 95.5 °F 71.4 °F 56% 30.25 in 10.0 mi East 8.1 mph - N/A   Clear
5:58 PM 88.5 °F 94.0 °F 70.3 °F 55% 30.25 in 10.0 mi Variable 6.9 mph - N/A   Clear
6:58 PM 87.6 °F 93.5 °F 71.1 °F 58% 30.25 in 10.0 mi East 6.9 mph - N/A   Clear
7:58 PM 85.6 °F 91.5 °F 71.6 °F 63% 30.25 in 10.0 mi ENE 4.6 mph - N/A   Clear
8:58 PM 82.8 °F 88.7 °F 73.4 °F 73% 30.25 in 10.0 mi NE 3.5 mph - N/A   Clear
9:58 PM 79.5 °F - 75.7 °F 88% 30.27 in 10.0 mi NE 1.2 mph - N/A   Clear
10:58 PM 79.2 °F - 74.3 °F 85% 30.27 in 10.0 mi Variable 3.5 mph - N/A   Clear
11:58 PM 79.0 °F - 73.4 °F 83% 30.28 in 10.0 mi SSE 2.3 mph - N/A   Clear